TimeMST,TemperatureF,Dew PointF,Humidity,Sea Level PressureIn,VisibilityMPH,Wind Direction,Wind SpeedMPH,Gust SpeedMPH,PrecipitationIn,Events,Conditions,WindDirDegrees,DateUTC
12:15 AM,30.9,10.0,42,30.19,10.0,Calm,Calm,-,N/A,,Clear,0,2014-03-06 07:15:00
12:35 AM,30.7,8.8,40,30.19,10.0,NW,6.9,-,N/A,,Clear,310,2014-03-06 07:35:00
12:55 AM,27.7,11.3,50,30.19,10.0,ENE,4.6,-,N/A,,Clear,60,2014-03-06 07:55:00
1:15 AM,28.2,10.6,48,30.19,10.0,SW,4.6,-,N/A,,Clear,220,2014-03-06 08:15:00
1:35 AM,28.4,9.3,45,30.19,10.0,NNW,3.5,-,N/A,,Clear,330,2014-03-06 08:35:00
1:55 AM,28.9,8.8,43,30.18,10.0,NW,9.2,-,N/A,,Clear,320,2014-03-06 08:55:00
2:15 AM,28.6,9.0,44,30.17,10.0,NE,4.6,-,N/A,,Clear,50,2014-03-06 09:15:00
2:35 AM,26.4,11.1,53,30.17,10.0,South,4.6,-,N/A,,Clear,190,2014-03-06 09:35:00
2:55 AM,23.9,12.7,62,30.18,10.0,Calm,Calm,-,N/A,,Clear,0,2014-03-06 09:55:00
3:15 AM,23.0,12.2,63,30.17,10.0,Calm,Calm,-,N/A,,Clear,0,2014-03-06 10:15:00
3:35 AM,20.7,12.4,70,30.17,10.0,Calm,Calm,-,N/A,,Clear,0,2014-03-06 10:35:00
3:55 AM,21.4,12.9,70,30.16,10.0,Calm,Calm,-,N/A,,Clear,0,2014-03-06 10:55:00
4:15 AM,25.0,11.8,57,30.16,10.0,WSW,4.6,-,N/A,,Clear,240,2014-03-06 11:15:00
4:35 AM,23.9,12.2,61,30.16,10.0,WSW,5.8,-,N/A,,Clear,240,2014-03-06 11:35:00
4:55 AM,21.7,12.2,67,30.16,10.0,West,3.5,-,N/A,,Clear,270,2014-03-06 11:55:00
5:15 AM,20.1,12.7,73,30.17,10.0,Calm,Calm,-,N/A,,Clear,0,2014-03-06 12:15:00
5:35 AM,19.9,12.4,72,30.17,10.0,Calm,Calm,-,N/A,,Clear,0,2014-03-06 12:35:00
5:55 AM,19.4,12.4,74,30.16,10.0,NNW,3.5,-,N/A,,Clear,340,2014-03-06 12:55:00
6:15 AM,21.2,12.2,68,30.16,10.0,WNW,3.5,-,N/A,,Clear,290,2014-03-06 13:15:00
6:35 AM,22.5,12.2,65,30.16,10.0,Calm,Calm,-,N/A,,Clear,0,2014-03-06 13:35:00
6:55 AM,22.3,12.9,67,30.16,10.0,West,3.5,-,N/A,,Clear,280,2014-03-06 13:55:00
7:15 AM,22.8,13.1,66,30.17,10.0,Calm,Calm,-,N/A,,Clear,0,2014-03-06 14:15:00
7:35 AM,23.0,14.0,68,30.17,10.0,Calm,Calm,-,N/A,,Clear,0,2014-03-06 14:35:00
7:55 AM,28.6,15.1,57,30.18,10.0,Calm,Calm,-,N/A,,Clear,0,2014-03-06 14:55:00
8:15 AM,30.6,13.6,50,30.18,10.0,Calm,Calm,-,N/A,,Clear,0,2014-03-06 15:15:00
8:35 AM,33.1,12.2,42,30.17,10.0,Calm,Calm,-,N/A,,Clear,0,2014-03-06 15:35:00
8:55 AM,36.1,12.0,37,30.17,10.0,ENE,3.5,-,N/A,,Clear,60,2014-03-06 15:55:00
9:15 AM,39.0,10.4,31,30.17,10.0,Calm,Calm,-,N/A,,Clear,0,2014-03-06 16:15:00
9:35 AM,40.1,9.0,28,30.16,10.0,Calm,Calm,-,N/A,,Clear,0,2014-03-06 16:35:00
9:55 AM,42.1,10.2,27,30.15,10.0,ESE,4.6,-,N/A,,Clear,120,2014-03-06 16:55:00
10:15 AM,43.7,9.0,24,30.14,10.0,East,3.5,-,N/A,,Clear,90,2014-03-06 17:15:00
10:35 AM,45.7,9.1,23,30.14,10.0,East,5.8,-,N/A,,Clear,90,2014-03-06 17:35:00
10:55 AM,47.8,9.0,21,30.12,10.0,Calm,Calm,-,N/A,,Clear,0,2014-03-06 17:55:00
11:15 AM,52.9,5.5,15,30.11,10.0,WSW,15.0,19.6,N/A,,Clear,240,2014-03-06 18:15:00
11:35 AM,52.9,7.9,16,30.09,10.0,SE,13.8,-,N/A,,Clear,140,2014-03-06 18:35:00
11:55 AM,51.4,7.7,17,30.08,10.0,SE,12.7,-,N/A,,Clear,140,2014-03-06 18:55:00
12:15 PM,50.7,7.9,18,30.07,10.0,SSE,11.5,17.3,N/A,,Clear,160,2014-03-06 19:15:00
12:35 PM,52.5,7.5,16,30.06,10.0,South,4.6,-,N/A,,Clear,170,2014-03-06 19:35:00
12:55 PM,50.9,8.2,18,30.04,10.0,SSE,6.9,-,N/A,,Clear,150,2014-03-06 19:55:00
1:15 PM,52.2,5.0,15,30.02,10.0,West,15.0,21.9,N/A,,Clear,260,2014-03-06 20:15:00
1:35 PM,53.1,4.3,14,30.00,10.0,WSW,19.6,26.5,N/A,,Clear,250,2014-03-06 20:35:00
1:55 PM,53.1,3.9,14,30.00,10.0,West,23.0,31.1,N/A,,Clear,260,2014-03-06 20:55:00
2:15 PM,53.6,3.2,13,29.99,10.0,West,24.2,34.5,N/A,,Clear,260,2014-03-06 21:15:00
2:35 PM,53.2,3.7,13,29.99,10.0,WSW,25.3,38.0,N/A,,Clear,240,2014-03-06 21:35:00
2:55 PM,54.9,3.7,13,29.99,10.0,West,20.7,32.2,N/A,,Clear,260,2014-03-06 21:55:00
3:15 PM,55.0,3.0,12,29.99,10.0,West,18.4,27.6,N/A,,Clear,260,2014-03-06 22:15:00
3:35 PM,54.5,3.9,13,29.97,10.0,WSW,12.7,24.2,N/A,,Clear,240,2014-03-06 22:35:00
3:55 PM,55.0,3.7,13,29.97,10.0,West,10.4,24.2,N/A,,Clear,260,2014-03-06 22:55:00
4:15 PM,54.9,2.8,12,29.96,10.0,WSW,11.5,26.5,N/A,,Clear,250,2014-03-06 23:15:00
4:35 PM,55.2,3.4,12,29.95,10.0,WSW,18.4,25.3,N/A,,Clear,240,2014-03-06 23:35:00
4:55 PM,52.9,3.7,14,29.95,10.0,WSW,17.3,28.8,N/A,,Clear,250,2014-03-06 23:55:00
5:15 PM,50.9,3.9,15,29.95,10.0,WSW,12.7,24.2,N/A,,Clear,250,2014-03-07 00:15:00
5:35 PM,49.8,5.5,17,29.95,10.0,WSW,12.7,24.2,N/A,,Clear,250,2014-03-07 00:35:00
5:55 PM,47.5,7.5,20,29.95,10.0,WSW,10.4,16.1,N/A,,Clear,250,2014-03-07 00:55:00
6:15 PM,45.9,9.7,23,29.95,10.0,West,9.2,-,N/A,,Clear,260,2014-03-07 01:15:00
6:35 PM,42.8,10.8,27,29.95,10.0,West,8.1,-,N/A,,Clear,260,2014-03-07 01:35:00
6:55 PM,41.9,11.5,29,29.95,10.0,West,10.4,-,N/A,,Clear,270,2014-03-07 01:55:00
7:15 PM,43.7,9.5,25,29.96,10.0,West,9.2,-,N/A,,Clear,280,2014-03-07 02:15:00
7:35 PM,41.4,10.2,28,29.97,10.0,WSW,9.2,-,N/A,,Clear,250,2014-03-07 02:35:00
7:55 PM,39.0,11.3,32,29.96,10.0,WSW,9.2,-,N/A,,Clear,240,2014-03-07 02:55:00
8:15 PM,41.2,9.7,28,29.95,10.0,West,6.9,-,N/A,,Clear,260,2014-03-07 03:15:00
8:35 PM,44.4,9.3,24,29.95,10.0,West,11.5,21.9,N/A,,Clear,270,2014-03-07 03:35:00
8:55 PM,43.7,10.2,26,29.95,10.0,West,13.8,20.7,N/A,,Clear,260,2014-03-07 03:55:00
9:15 PM,43.7,11.3,27,29.95,10.0,West,17.3,-,N/A,,Clear,260,2014-03-07 04:15:00
9:35 PM,42.1,12.7,30,29.96,10.0,West,12.7,-,N/A,,Clear,280,2014-03-07 04:35:00
9:55 PM,41.9,14.0,32,29.97,10.0,West,15.0,18.4,N/A,,Clear,260,2014-03-07 04:55:00
10:15 PM,42.4,14.0,32,29.96,10.0,West,11.5,21.9,N/A,,Clear,270,2014-03-07 05:15:00
10:35 PM,41.9,13.8,32,29.95,10.0,WSW,15.0,20.7,N/A,,Clear,240,2014-03-07 05:35:00
10:55 PM,41.4,14.2,33,29.95,10.0,SW,19.6,27.6,N/A,,Clear,230,2014-03-07 05:55:00
11:15 PM,40.8,14.7,35,29.97,10.0,WSW,8.1,17.3,N/A,,Clear,240,2014-03-07 06:15:00
11:35 PM,39.9,17.6,41,29.96,10.0,WSW,21.9,28.8,N/A,,Clear,250,2014-03-07 06:35:00
11:55 PM,37.4,23.0,56,29.95,10.0,WSW,24.2,32.2,N/A,,Clear,250,2014-03-07 06:55:00